[[{"header":{"parameterUnit":"m.s-1","parameterCategory":1,"la1":30.2991,"la2":30.254,"lo1":-89.0895,"lo2":-89.0444,"dy":0.0017,"dx":0.0017,"nx":28,"ny":28,"refTime":"2023-09-03T21:00:00:Z","depth":0,"parameterNumber":2,"parameterNumberName":"U-component_of_WINDS"},"data":[0,0,0,0,0,0,0,0,0,0,0,0,0,0,0,0,0,0,0,0,0,0,0,0,0,0,0,0,0,0,0,0,0,0,0,0,0,0,0,0,0,0,0,0,0,0,0,0,0,0,0,0,0,0,0,0,0,0,-5.3721,-5.3721,0,-5.3792,-5.3793,-5.3793,-5.3718,-5.3715,-5.3713,-5.371,-5.3777,-5.3781,-5.3785,0,0,0,0,0,0,0,0,0,0,0,0,0,-5.3513,-5.3517,-5.372,-5.3721,-5.3722,-5.3792,-5.3793,-5.3794,-5.3719,-5.3715,-5.3712,-5.3708,-5.3775,-5.3781,-5.3786,0,0,0,0,0,0,0,0,0,0,0,0,0,-5.3595,-5.3519,-5.372,-5.3693,-5.3692,-5.3792,-5.3793,-5.3794,-5.372,-5.3715,-5.3711,-5.3707,-5.3774,-5.378,-5.3787,-5.3915,0,0,-5.3807,-5.381,0,0,0,0,0,0,0,0,-5.3591,-5.3603,-5.3697,-5.3696,-5.3694,-5.3742,-5.3744,-5.3834,-5.3721,-5.3709,-5.371,-5.3705,-5.3768,-5.3775,-5.3798,-5.3918,-5.3921,-5.3808,-5.3812,-5.3815,-5.3817,0,0,0,0,0,0,0,-5.3585,-5.36,-5.3748,-5.3698,-5.3696,-5.3676,-5.3683,-5.3761,-5.3762,-5.3709,-5.3704,-5.3714,-5.3767,-5.3792,-5.3799,-5.3922,-5.3808,-5.3813,-5.3818,-5.382,-5.4147,-5.4151,0,0,0,0,0,0,-5.3583,-5.3595,-5.3746,-5.3751,-5.3631,-5.3683,-5.3691,-5.3731,-5.3761,-5.3761,-5.3718,-5.371,-5.3782,-5.3791,-5.3801,-5.3949,-5.3815,-5.3821,-5.3825,-5.4142,-5.4148,-5.4153,0,0,0,0,0,0,-5.3579,-5.3598,-5.3743,-5.3672,-5.3689,-5.3691,-5.3737,-5.3734,-5.3759,-5.3767,-5.3766,-5.3743,-5.3779,-5.3791,-5.3887,-5.3951,-5.3824,-5.383,-5.4137,-5.4144,-5.4151,-5.425,0,0,0,0,0,0,-5.3574,-5.3597,-5.3647,-5.3674,-5.3693,-5.383,-5.3741,-5.3739,-5.3772,-5.3763,-5.3791,-5.3791,-5.3777,-5.3877,-5.3893,-5.3958,-5.3835,-5.4131,-5.414,-5.4148,-5.4241,-5.4259,-5.4275,0,0,0,0,0,-5.3567,-5.3671,-5.365,-5.3668,-5.3756,-5.3834,-5.3845,-5.3828,-5.3777,-5.3826,-5.3831,-5.379,-5.3943,-5.3887,-5.3905,-5.3973,-5.4127,-5.4137,-5.4148,-5.4233,-5.4256,-5.4275,0,0,0,0,0,0,-5.3649,-5.3674,-5.365,-5.3767,-5.3799,-5.3821,-5.3882,-5.3853,-5.3898,-5.3887,-5.3863,-5.387,-5.397,-5.3981,-5.392,-5.4097,-5.4026,-5.404,-5.4085,-5.4106,-5.4123,-5.4116,-5.3841,0,0,0,0,0,-5.3682,-5.3745,-5.3763,-5.3864,-5.3881,-5.388,-5.3913,-5.3897,-5.3929,-5.3941,-5.3953,-5.3983,-5.4037,-5.4073,-5.4124,-5.4244,-5.4246,-5.4299,-5.4316,-5.433,-5.4341,-5.4402,-5.4425,-5.4187,-5.4187,-5.4187,0,0,-5.3748,-5.3769,-5.381,-5.3881,-5.3904,-5.3967,-5.3891,-5.3962,-5.4008,-5.3951,-5.4041,-5.4051,-5.4083,-5.4191,-5.4238,-5.4203,-5.4409,-5.4344,-5.4355,-5.4358,-5.4415,-5.4438,-5.4458,-5.4195,-5.4193,-5.4192,0,0,-5.39,-5.3925,-5.401,-5.4036,-5.4072,-5.407,-5.4091,-5.4118,-5.4123,-5.4214,-5.4171,-5.4226,-5.4321,-5.4344,-5.4368,-5.4531,-5.4494,-5.4549,-5.4637,-5.4697,-5.4715,-5.4731,-5.4785,-5.4806,-5.4561,-5.4561,-5.4561,0,-5.3977,-5.4073,-5.4057,-5.4131,-5.4162,-5.4117,-5.4201,-5.4226,-5.4276,-5.4297,-5.4258,-5.4376,-5.4394,-5.4505,-5.4545,-5.4568,-5.4587,-5.4543,-5.4714,-5.4731,-5.4745,-5.4796,-5.4817,-5.4567,-5.4567,-5.4566,-5.4565,0,-5.4164,-5.4231,-5.4296,-5.4347,-5.4386,-5.4465,-5.4459,-5.45,-5.4482,-5.4483,-5.4575,-5.4596,-5.4649,-5.4675,-5.4658,-5.4783,-5.476,-5.4719,-5.4646,-5.4774,-5.4821,-5.4841,-5.4576,-5.4574,-5.4572,-5.457,0,0,-5.4366,-5.441,-5.4433,-5.4455,-5.4493,-5.4543,-5.462,-5.4673,-5.4707,-5.4744,-5.4805,-5.4887,-5.4849,-5.4877,-5.4862,-5.4915,-5.5038,-5.4866,-5.4867,-5.4894,-5.5173,-5.52,-5.5223,-5.5016,-5.5019,-5.5022,-5.5168,0,-5.4516,-5.465,-5.4638,-5.4764,-5.4824,-5.4782,-5.4848,-5.4877,-5.4882,-5.4932,-5.4936,-5.4993,-5.494,-5.4956,-5.5008,-5.5012,-5.5093,-5.5002,-5.5068,-5.507,-5.5056,-5.5249,-5.5278,-5.5415,-5.5187,-5.5191,-5.5193,0,-5.4708,-5.4753,-5.4885,-5.4912,-5.4937,-5.4997,-5.5044,-5.5094,-5.5125,-5.5124,-5.5157,-5.5133,-5.5207,-5.5137,-5.5237,-5.5175,-5.5202,-5.5209,-5.5214,-5.5215,-5.5136,-5.525,-5.5458,-5.5477,-5.5223,-5.522,-5.5218,0,-5.4836,-5.4931,-5.5021,-5.5042,-5.5077,-5.512,-5.5136,-5.5164,-5.5196,-5.5238,-5.5258,-5.5308,-5.5333,-5.5371,-5.536,-5.5311,-5.5461,-5.5391,-5.5459,-5.5459,-5.5488,-5.5485,-5.5698,-5.5514,-5.5514,-5.5513,-5.5513,0,-5.5002,-5.5083,-5.5079,-5.5134,-5.5223,-5.521,-5.5297,-5.5308,-5.5333,-5.5388,-5.5356,-5.5407,-5.5392,-5.5443,-5.5435,-5.5516,-5.553,-5.5528,-5.5524,-5.5528,-5.5528,-5.5542,-5.553,-5.5519,-5.5518,-5.5517,-5.5516,0,-5.5159,-5.516,-5.5255,-5.5282,-5.529,-5.5354,-5.5376,-5.5426,-5.543,-5.5499,-5.5514,-5.5518,-5.5575,-5.557,-5.5634,-5.5628,-5.5728,-5.5716,-5.5718,-5.5713,-5.5779,-5.5771,-5.6004,-5.6032,-5.5835,-5.5837,-5.5839,0,-5.5262,-5.5323,-5.5357,-5.5392,-5.5412,-5.5469,-5.5503,-5.5492,-5.5528,-5.5568,-5.5613,-5.5669,-5.5711,-5.5805,-5.5811,-5.586,-5.5845,-5.5923,-5.5851,-5.5853,-5.584,-5.5835,-5.5839,-5.5936,-5.5938,-5.594,-5.5941,0,-5.5443,-5.5441,-5.5491,-5.5543,-5.5584,-5.5623,-5.5658,-5.5689,-5.5681,-5.5723,-5.5782,-5.5816,-5.5882,-5.5935,-5.5982,-5.5996,-5.5966,-5.5965,-5.5982,-5.5984,-5.5981,-5.5979,-5.5751,-5.5958,-5.5956,-5.5955,-5.5954,-5.5954,-5.5573,-5.5624,-5.5656,-5.5713,-5.5739,-5.5773,-5.5822,-5.5832,-5.5881,-5.5935,-5.5926,-5.5992,-5.602,-5.6079,-5.6099,-5.6148,-5.6119,-5.6146,-5.6151,-5.6157,-5.6162,-5.5978,-5.6157,-5.6157,-5.6156,-5.6156,-5.6155,0,-5.5748,-5.5767,-5.582,-5.5871,-5.5916,-5.5889,-5.5926,-5.5964,-5.6023,-5.6053,-5.6097,-5.6164,-5.6216,-5.6228,-5.6277,-5.6315,-5.6302,-5.6327,-5.6322,-5.6325,-5.6188,-5.6165,-5.6336,-5.6336,-5.6336,-5.6336,-5.6336,-5.6336,-5.5844,-5.5929,-5.5931,-5.6028,-5.6046,-5.6111,-5.6135,-5.6165,-5.6189,-5.6266,-5.631,-5.6319,-5.6341,-5.6392,-5.6437,-5.6439,-5.6457,-5.6487,-5.6483,-5.6353,-5.6335,-5.6317,-5.6296,-5.6492,-5.6492,-5.6615,-5.6616,-5.6617]},{"header":{"parameterUnit":"m.s-1","parameterCategory":1,"la1":30.2991,"la2":30.254,"lo1":-89.0895,"lo2":-89.0444,"dy":0.0017,"dx":0.0017,"nx":28,"ny":28,"refTime":"2023-09-03T21:00:00:Z","depth":0,"parameterNumber":3,"parameterNumberName":"V-component_of_WINDS"},"data":[0,0,0,0,0,0,0,0,0,0,0,0,0,0,0,0,0,0,0,0,0,0,0,0,0,0,0,0,0,0,0,0,0,0,0,0,0,0,0,0,0,0,0,0,0,0,0,0,0,0,0,0,0,0,0,0,0,0,2.7051,2.7052,0,2.7109,2.711,2.7111,2.7055,2.7053,2.7051,2.7049,2.7103,2.7107,2.711,0,0,0,0,0,0,0,0,0,0,0,0,0,2.6889,2.6893,2.7051,2.7052,2.7053,2.7109,2.711,2.7111,2.7056,2.7053,2.705,2.7048,2.7102,2.7106,2.7111,0,0,0,0,0,0,0,0,0,0,0,0,0,2.6955,2.6894,2.7051,2.7032,2.7031,2.7109,2.711,2.7111,2.7056,2.7053,2.705,2.7047,2.7101,2.7106,2.7111,2.721,0,0,2.7127,2.713,0,0,0,0,0,0,0,0,2.6951,2.6961,2.7034,2.7034,2.7032,2.7072,2.7073,2.7144,2.7057,2.7046,2.7049,2.7045,2.7095,2.7101,2.7119,2.7212,2.7214,2.7128,2.7131,2.7133,2.7135,0,0,0,0,0,0,0,2.6947,2.6958,2.7074,2.7035,2.7034,2.702,2.7025,2.7086,2.7088,2.7047,2.7043,2.7051,2.7094,2.7114,2.712,2.7215,2.7128,2.7132,2.7136,2.7138,2.7394,2.7397,0,0,0,0,0,0,2.6945,2.6954,2.7072,2.7076,2.6983,2.7025,2.7032,2.7062,2.7088,2.7088,2.7054,2.7048,2.7106,2.7114,2.7121,2.7239,2.7133,2.7138,2.7141,2.739,2.7395,2.7399,0,0,0,0,0,0,2.6941,2.6956,2.707,2.7014,2.7028,2.7032,2.7067,2.7065,2.7085,2.7093,2.7093,2.7074,2.7104,2.7114,2.7189,2.724,2.714,2.7145,2.7386,2.7392,2.7397,2.7474,0,0,0,0,0,0,2.6937,2.6955,2.6993,2.7015,2.7031,2.7137,2.707,2.7069,2.7095,2.7088,2.7111,2.7112,2.7102,2.7181,2.7194,2.7245,2.7149,2.7381,2.7389,2.7395,2.7467,2.7482,2.7494,0,0,0,0,0,2.6931,2.7011,2.6995,2.7009,2.7078,2.714,2.7149,2.7137,2.7099,2.7137,2.7142,2.7111,2.7233,2.7189,2.7203,2.7257,2.7378,2.7387,2.7395,2.7461,2.7479,2.7494,0,0,0,0,0,0,2.6991,2.7013,2.6996,2.7085,2.7112,2.7131,2.7178,2.7156,2.7193,2.7185,2.7168,2.7173,2.7253,2.7262,2.7214,2.7354,2.7299,2.731,2.7345,2.7362,2.7375,2.7371,2.7154,0,0,0,0,0,2.7015,2.7065,2.7081,2.7158,2.7173,2.7174,2.72,2.7189,2.7215,2.7225,2.7236,2.7261,2.7305,2.7334,2.7375,2.7469,2.7474,2.7513,2.7527,2.7538,2.7547,2.7599,2.7617,2.7426,2.7426,2.7426,0,0,2.7064,2.7082,2.7114,2.7171,2.719,2.7241,2.7183,2.7239,2.7276,2.7233,2.7305,2.7315,2.7341,2.7427,2.7465,2.7437,2.7602,2.7548,2.7557,2.7561,2.7609,2.7628,2.7644,2.7431,2.743,2.7429,0,0,2.718,2.7199,2.7266,2.7288,2.7318,2.7319,2.7335,2.7359,2.7364,2.7437,2.7406,2.745,2.7526,2.7547,2.7568,2.7695,2.7668,2.7709,2.7779,2.783,2.7845,2.7858,2.7904,2.7921,2.7719,2.7719,2.7719,0,2.7236,2.7313,2.7303,2.7362,2.7388,2.7354,2.7422,2.7443,2.7485,2.7503,2.7472,2.7569,2.7584,2.7675,2.7706,2.7724,2.7742,2.7705,2.7844,2.7857,2.7869,2.7913,2.793,2.7724,2.7723,2.7723,2.7722,0,2.7381,2.7436,2.7486,2.753,2.7562,2.7625,2.7624,2.7657,2.7645,2.7649,2.7723,2.7742,2.7787,2.7808,2.7795,2.7897,2.7879,2.7847,2.779,2.7893,2.7933,2.795,2.7731,2.7729,2.7728,2.7726,0,0,2.7533,2.7574,2.7592,2.7613,2.7646,2.7687,2.775,2.7796,2.7825,2.7856,2.7907,2.7974,2.7945,2.7969,2.7958,2.8003,2.8104,2.7965,2.7966,2.799,2.8219,2.8243,2.8262,2.8087,2.8091,2.8093,2.8216,0,2.765,2.776,2.7753,2.7856,2.7906,2.7877,2.7931,2.7957,2.7963,2.8006,2.8012,2.806,2.8018,2.8033,2.8076,2.8083,2.815,2.8074,2.8134,2.8137,2.8128,2.8283,2.8308,2.8423,2.8232,2.8235,2.8237,0,2.78,2.7839,2.7948,2.7976,2.7997,2.8046,2.8089,2.813,2.816,2.8161,2.819,2.8173,2.8235,2.818,2.8266,2.8214,2.8239,2.8247,2.8251,2.8255,2.8192,2.8291,2.846,2.8477,2.8262,2.826,2.8258,0,2.79,2.798,2.8055,2.8074,2.8109,2.8144,2.816,2.8186,2.8215,2.8253,2.8271,2.8315,2.8338,2.8372,2.8368,2.8327,2.8456,2.8399,2.8458,2.8458,2.8485,2.8483,2.866,2.8502,2.8502,2.8502,2.8501,0,2.803,2.8097,2.8101,2.8147,2.8223,2.8215,2.8289,2.8301,2.8326,2.8374,2.835,2.8395,2.8387,2.8432,2.8429,2.8502,2.8512,2.8515,2.8513,2.8516,2.8516,2.8531,2.8523,2.8506,2.8505,2.8505,2.8504,0,2.8153,2.8158,2.8239,2.8267,2.8276,2.833,2.8353,2.8397,2.8403,2.8464,2.8477,2.8486,2.8538,2.8538,2.8596,2.8594,2.8683,2.8672,2.8674,2.8671,2.873,2.8725,2.8922,2.8948,2.8774,2.8776,2.8777,0,2.8236,2.8287,2.8322,2.8354,2.8373,2.8423,2.8454,2.8449,2.8482,2.8521,2.8561,2.8611,2.8651,2.8736,2.8747,2.8792,2.8782,2.8848,2.8788,2.8791,2.8783,2.878,2.8785,2.8859,2.8861,2.8863,2.8864,0,2.8381,2.8382,2.8428,2.8476,2.8514,2.855,2.8584,2.8611,2.861,2.8648,2.8702,2.8734,2.8796,2.8847,2.8891,2.8906,2.8885,2.8883,2.8899,2.8903,2.8902,2.8903,2.8705,2.8878,2.8877,2.8876,2.8875,2.8874,2.8486,2.8532,2.8564,2.8617,2.8642,2.8675,2.8719,2.8732,2.8777,2.8829,2.8823,2.8884,2.8914,2.8972,2.8992,2.9039,2.9016,2.9039,2.9045,2.905,2.9057,2.8896,2.9047,2.9047,2.9046,2.9046,2.9046,0,2.8631,2.8651,2.87,2.875,2.8791,2.8771,2.8808,2.8843,2.8898,2.8929,2.897,2.9034,2.9084,2.91,2.9148,2.9183,2.9175,2.9196,2.9192,2.9197,2.9075,2.9056,2.9202,2.9202,2.9202,2.9202,2.9202,2.9202,2.8711,2.8787,2.8793,2.8882,2.8901,2.8963,2.8986,2.9016,2.9041,2.9114,2.9156,2.9167,2.9193,2.9243,2.9288,2.9292,2.931,2.9335,2.9335,2.9221,2.9205,2.919,2.9172,2.934,2.934,2.9452,2.9453,2.9454]}]]